Flag for Germany

Past Weather in Heidenheim an der Brenz, Baden-Württemberg, Germany — Yesterday and Last 2 Weeks

Now
79 °F

Scattered clouds.


Feels Like: 79 °F
Forecast: 81 / 60 °F
Wind: 14 mph from Southwest

Location: Laupheim Airport

Current Time: Jul 9, 2020 at 2:16:37 pm

Latest Report: Jul 9, 2020 at 1:20 pm


Visibility: N/A

Pressure: 30.07 "Hg

Humidity: 39%

Dew Point: 52 °F

Location of Heidenheim an der BrenzLocation

Past Weather in Heidenheim an der Brenz — Graph

°F

Heidenheim an der Brenz Temperature Yesterday

Maximum temperature yesterday: 79 °F (at 5:20 pm)
Minimum temperature yesterday: 50 °F (at 4:20 am)
Average temperature yesterday: 64 °F

High & Low Weather Summary for the Past Weeks

 TemperatureHumidityPressure
High82 °F (Jul 1, 3:20 pm)100% (Jun 29, 5:20 am)30.18 "Hg (Jun 29, 5:20 am)
Low46 °F (Jul 7, 5:20 am)33% (Jul 7, 5:20 pm)29.83 "Hg (Jul 1, 3:20 pm)
Average65 °F67%30.03 "Hg
* Reported Jun 24 12:20 pm — Jul 9 12:20 pm, Heidenheim an der Brenz. Weather by CustomWeather, © 2020

Note: Actual official high and low records may vary slightly from our data, if they occured in-between our weather recording intervals... More about our weather records

Heidenheim an der Brenz Weather History for the Previous 24 Hours

Scroll right to see more
 ConditionsComfort  
Time TempWeatherWind HumidityBarometerVisibility
12:20 pm
Thu, Jul 9
75 °FScattered clouds.9 mph47%30.07 "HgN/A
11:20 am73 °FScattered clouds.7 mph53%30.07 "HgN/A
10:20 am72 °FScattered clouds.8 mph53%30.09 "HgN/A
9:20 am68 °FScattered clouds.9 mph60%30.09 "HgN/A
8:20 am66 °FScattered clouds.7 mph68%30.09 "HgN/A
7:20 am61 °FScattered clouds.6 mph83%30.09 "HgN/A
6:20 am59 °FScattered clouds.5 mph82%30.07 "HgN/A
5:20 am57 °FPassing clouds.6 mph82%30.07 "HgN/A
4:20 am59 °FPassing clouds.5 mph77%30.07 "HgN/A
3:20 am61 °FPassing clouds.5 mph77%30.07 "HgN/A
2:20 am63 °FPassing clouds.3 mph73%30.07 "HgN/A
1:20 am66 °FPassing clouds.2 mph64%30.09 "HgN/A
12:20 am66 °FPassing clouds.2 mph60%30.09 "HgN/A
11:20 pm
Wed, Jul 8
66 °FPassing clouds.3 mph64%30.09 "HgN/A
10:20 pm68 °FPassing clouds.3 mph56%30.07 "HgN/A
9:20 pm70 °FPartly sunny.5 mph50%30.07 "HgN/A
8:20 pm70 °FPartly sunny.3 mph53%30.07 "HgN/A
7:20 pm73 °FPartly sunny.6 mph44%30.04 "HgN/A
6:20 pm75 °FBroken clouds.9 mph41%30.04 "HgN/A
5:20 pm79 °FScattered clouds.12 mph34%30.04 "HgN/A
4:20 pm77 °FPartly sunny.14 mph36%30.04 "HgN/A
3:20 pm75 °FPartly sunny.14 mph41%30.04 "HgN/A
2:20 pm75 °FScattered clouds.12 mph39%30.04 "HgN/A
Weather by CustomWeather, © 2020

See weather overview